Torino / Aeritalia Airport LIMA

Flugplatz Daten

Name: Torino / Aeritalia Airport

Ident: LIMA

Lat: 45,08639908

Long: 7,60337019

Platzhöhe: 943 ft

IataCode:

City: Torino

Metar

2022/08/13 16:50
LIMA 131650Z 17006KT 110V260 CAVOK 29/10 Q1012

Taf

Gewünschte Webcam nicht vorhanden? Dann fügen Sie eine hinzu. Sie wird dann so schnell wie möglich freigeschaltet
Url: Title: